sat.trackr.live / text

‹ back to catalog

O3B FM10

NORAD 40348 · 2014-083A

PAYLOAD ACTIVE UNKNOWN

§ Identity

Operator
Country
O3B
Launch date
2014-12-18
Launch site
FRGUI
Launch vehicle
Mass (kg)
RCS (m²)
0.50

Purposes: comms

External: N2YO · Heavens-Above · Gunter

§ Orbital elements

Epoch: 2026-09-19T16:58:56.919072Z

Period
287.93 min
Inclination
0.0491°
Eccentricity
0.0002672
Mean motion
5.00115808 rev/d
Perigee alt
8,062.0 km
Apogee alt
8,069.7 km
Semi-major
14,444.0 km
B*
0.0000e+0
RAAN
344.5423°
Arg perigee
193.2526°
Mean anomaly
182.2085°
Rev number
21,461

§ Raw data

O3B FM101 40348U 14083A   26262.70760323 -.00000027  00000+0  00000+0 0  99992 40348   0.0491 344.5423 0002672 193.2526 182.2085  5.00115808214613

JSON: /api/v1/satellites/40348 · /tle

For live sub-satellite position, see the globe view (requires WebGL).

§ Visibility from observer

Set your observer location to see the next 7 days of passes ≥ 10°. The values pass through the URL so the page stays shareable.

No JS? Fill the form by hand. The geolocation button needs JavaScript.